RH
62 70 60 59 59 64 64 62 68 81 76 68 66 68 77 92 86 83 86 77 67 62 61 62 62 61 60 60 59 60 60 59 58 57 58 59 59 60
61 61 56 54 59 68 67 59 64 69 74 69 72 69 73 73 82 82 83 80 70 62 62 63 62 62 60 61 60 60 58 58 57 58 58 59 60 59
58 50 47 46 59 67 69 58 66 66 68 81 74 71 71 85 86 88 82 83 79 63 61 62 62 61 59 61 60 60 59 58 58 58 59 59 60 58
54 49 47 38 58 58 59 60 70 72 76 76 75 73 70 80 84 86 66 61 76 64 60 61 61 59 58 58 60 59 58 58 58 58 59 60 60 58
50 46 44 50 56 60 59 63 77 61 75 75 85 76 76 77 81 75 67 74 58 68 59 59 61 58 58 59 59 59 59 58 57 57 59 60 59 59
52 46 43 48 51 60 55 70 73 73 76 78 74 70 68 75 81 77 68 68 75 56 57 61 64 59 56 59 60 60 58 56 56 57 58 58 57 59
56 47 47 51 58 56 57 67 69 71 74 76 77 74 82 71 74 80 75 74 69 74 80 81 86 82 73 63 65 62 56 55 57 57 58 56 57 60
58 51 50 67 68 66 64 66 61 67 73 73 75 72 71 67 76 70 74 77 68 73 79 77 80 86 73 79 62 65 57 55 59 57 57 57 59 61
55 51 50 50 63 59 72 70 70 68 63 63 69 68 74 66 64 68 72 71 76 76 69 75 64 64 65 48 61 61 59 56 59 59 57 57 59 60
55 50 47 60 60 65 68 72 78 76 71 62 62 64 67 62 58 58 64 74 70 66 69 84 68 61 60 61 56 60 60 59 58 61 59 55 57 59
57 51 48 57 70 72 66 73 81 83 82 76 73 71 70 67 61 64 66 68 85 66 67 69 63 65 60 59 67 54 61 60 61 54 50 51 54 57
62 57 64 56 75 70 62 69 78 84 81 82 85 78 70 67 67 60 61 65 86 76 64 76 70 70 74 64 65 69 80 63 57 46 47 51 53 72
67 65 58 71 74 68 64 61 64 77 76 83 83 81 79 74 78 74 72 62 89 89 69 80 89 82 90 78 70 67 65 67 65 60 55 54 54 59
71 65 62 78 74 71 65 71 77 75 79 81 80 78 74 78 86 87 86 82 80 76 66 77 93 88 90 89 80 70 76 72 67 69 72 60 61 61
71 71 75 82 77 72 71 79 75 71 75 78 79 78 74 83 84 85 82 79 81 78 75 81 90 92 94 94 89 93 89 79 74 78 78 76 80 77
84 81 82 81 74 70 80 76 69 71 69 72 78 81 84 83 83 87 87 86 87 89 76 80 85 86 93 91 94 95 91 90 89 83 80 82 80 77
88 91 93 91 92 90 84 79 76 73 73 78 81 83 81 82 87 90 86 90 93 93 90 82 77 78 86 89 95 90 89 93 95 93 90 94 86 81
88 95 96 92 92 90 84 78 74 73 76 75 78 78 82 86 91 94 89 95 91 91 93 91 88 92 92 82 79 92 95 96 96 89 90 97 96 82
93 96 95 92 91 86 80 78 78 76 78 78 80 84 89 92 88 90 92 94 96 95 94 93 97 97 97 97 91 64 94 97 97 97 97 97 97 82
93 95 95 93 91 88 88 90 94 88 86 86 89 91 92 89 91 91 93 95 97 97 96 95 97 98 94 91 95 95 62 94 97 97 98 97 89 71
96 96 94 94 93 91 91 93 93 95 95 95 95 94 91 90 91 93 96 96 95 93 95 97 97 84 98 96 93 96 91 66 71 94 96 98 97 96
96 96 95 94 94 95 97 97 98 98 97 96 96 94 93 91 93 95 97 96 93 90 97 97 97 98 97 95 97 95 95 86 73 62 60 68 94 97
97 97 97 96 97 97 97 97 97 96 95 95 95 94 94 95 94 95 97 93 93 95 92 95 98 96 98 97 94 97 96 95 97 94 89 61 59 62
Wind_Speed
11 10 10 6 7 10 12 12 10 6 5 6 4 5 4 5 6 6 6 11 13 11 11 11 10 10 10 9 8 9 8 9 10 11 12 14 15 17
10 12 9 7 7 9 12 10 4 5 5 4 3 5 6 5 7 6 7 9 14 12 11 10 10 9 8 8 7 7 7 8 9 10 11 13 15 16
13 12 12 12 8 9 9 8 4 4 7 2 3 4 5 7 5 5 7 6 5 11 11 10 9 8 7 6 6 5 6 7 8 9 11 13 15 17
16 14 13 10 10 11 9 9 5 4 5 9 3 4 4 5 5 6 6 6 5 10 11 11 9 8 7 6 5 4 4 5 8 9 10 12 15 17
19 17 17 15 12 9 10 8 6 5 5 7 5 3 3 4 4 4 3 5 5 10 10 10 10 9 7 6 4 3 3 4 6 8 9 12 14 17
18 17 18 18 17 15 12 10 8 8 7 6 7 7 5 3 4 5 3 3 3 4 5 6 8 8 7 6 5 3 2 3 6 8 9 11 14 16
16 15 15 18 21 20 13 11 12 8 8 8 7 7 5 8 11 4 3 3 1 3 3 2 2 3 3 7 5 5 2 2 5 8 8 11 14 17
18 14 13 17 19 22 21 23 20 16 11 7 7 11 11 10 5 8 5 4 4 3 4 3 4 4 4 4 8 8 3 1 4 6 9 12 15 16
18 16 13 11 17 15 17 19 17 18 18 12 15 12 11 15 12 10 6 5 4 2 5 3 3 3 4 4 11 8 5 1 3 7 10 12 15 17
19 18 17 17 16 16 15 11 7 7 8 6 11 12 7 14 14 8 7 6 3 3 3 3 2 2 2 2 8 8 7 4 3 7 10 12 14 15
16 17 17 18 21 24 17 14 9 5 6 12 12 15 17 21 15 11 9 8 2 3 2 3 3 3 1 1 3 6 8 5 5 5 7 11 13 13
13 14 22 21 29 29 18 17 14 8 8 7 6 10 15 16 21 11 11 11 4 1 5 4 3 4 1 0 1 0 1 6 4 5 8 10 12 3
13 12 11 22 29 28 23 16 15 13 12 9 8 7 7 8 5 6 6 9 4 2 6 4 3 3 2 2 1 2 2 0 2 3 7 10 12 9
14 12 14 26 27 25 20 20 26 19 9 8 8 7 8 6 4 5 6 5 4 2 8 3 3 4 3 2 2 1 1 1 2 2 3 7 11 11
10 12 22 28 28 20 21 29 27 12 11 9 9 7 5 6 8 8 8 10 10 8 5 1 3 4 3 3 3 2 2 0 2 2 3 4 4 4
14 11 14 16 15 11 18 18 10 11 13 11 8 7 7 6 6 3 5 5 5 4 6 4 6 4 2 2 3 2 1 1 2 2 2 3 4 4
14 11 12 11 9 9 10 8 9 10 10 8 10 9 8 7 5 3 5 4 4 5 3 2 6 6 5 4 3 1 1 1 1 2 2 2 4 4
12 12 12 12 14 12 11 10 9 13 9 10 10 10 10 8 7 4 5 3 6 4 3 2 2 3 3 4 4 2 1 1 2 3 3 2 3 3
8 10 11 12 12 12 11 10 9 8 12 11 11 10 10 8 11 7 6 6 5 4 3 2 2 3 2 2 1 3 3 1 1 2 1 1 4 7
10 12 12 12 12 12 12 11 11 9 9 11 10 10 9 10 9 8 7 7 7 4 3 1 2 2 4 5 3 1 2 2 1 1 3 2 5 14
10 10 10 10 11 11 11 12 13 12 12 11 10 10 10 10 9 8 8 11 10 4 6 3 2 8 2 2 4 2 2 4 2 3 3 2 4 4
8 9 9 10 11 11 11 12 11 12 11 10 10 10 9 9 10 10 9 9 7 6 4 4 3 2 2 3 2 0 2 2 6 9 8 5 4 3
8 9 9 10 10 11 12 13 12 11 11 10 10 10 11 10 9 8 8 8 8 8 8 5 2 1 2 3 3 0 1 2 2 3 3 5 9 13
Wind_Direction
148 138 142 149 132 150 157 163 156 150 177 204 166 194 149 144 149 130 126 128 127 127 126 122 116 109 100 87 76 64 53 47 39 33 27 21 18 11
149 142 138 152 129 143 160 163 137 134 140 154 187 154 148 147 158 137 133 121 136 142 141 136 128 120 106 91 75 63 51 45 36 29 24 17 14 9
152 150 146 149 139 141 154 153 153 136 135 80 114 144 133 147 137 130 127 124 135 156 154 147 144 136 124 106 87 69 51 43 35 25 20 12 11 5
156 151 146 146 144 151 153 160 142 135 123 139 126 147 135 145 130 137 143 140 142 170 166 161 158 154 145 130 106 85 56 40 36 25 14 12 7 0
157 156 156 152 153 150 157 154 135 124 120 141 131 119 105 154 128 134 140 137 161 171 175 174 172 171 166 153 145 119 57 30 33 22 15 11 4 358
161 161 162 162 165 158 161 153 137 128 120 128 132 145 144 153 124 149 138 105 142 164 177 172 180 180 178 177 171 152 64 22 24 19 12 7 0 359
161 164 172 165 166 162 154 156 142 134 141 144 145 151 156 169 177 161 130 135 181 162 155 170 153 150 212 193 192 176 133 28 21 11 2 3 1 0
161 164 167 153 158 160 163 164 162 154 154 149 163 173 177 173 149 163 146 138 205 217 144 220 166 203 213 196 200 183 165 57 19 357 356 358 360 356
163 158 159 162 161 158 159 163 164 167 166 160 164 179 170 180 160 165 169 165 186 200 108 194 185 196 203 190 180 186 179 135 0 348 350 353 354 353
164 162 162 158 164 153 148 152 153 155 163 155 171 170 169 171 173 168 153 113 53 51 119 159 181 207 148 187 192 198 204 199 331 346 348 346 349 351
166 162 162 161 163 153 150 151 135 119 101 152 156 158 159 167 156 131 153 141 117 211 203 127 174 129 149 188 227 212 217 221 276 328 335 344 342 349
162 162 166 164 163 159 157 154 151 163 137 108 103 131 150 161 160 163 157 161 134 107 214 144 143 133 155 3 162 139 219 250 249 349 350 349 342 345
165 164 168 168 168 164 158 164 165 142 133 120 114 115 123 138 136 137 157 158 144 174 185 135 139 120 92 143 188 195 180 161 65 12 351 349 346 341
172 173 167 164 172 165 154 143 140 133 130 131 132 138 144 139 129 116 104 84 49 109 145 107 118 137 138 131 170 200 194 131 93 343 348 345 335 341
169 171 161 169 168 162 152 149 144 146 147 150 156 159 151 127 116 99 88 86 73 58 59 52 116 118 116 140 156 164 133 157 71 16 0 336 311 324
127 124 147 152 158 154 139 151 148 157 161 159 149 124 120 136 137 115 119 121 91 67 38 48 79 96 105 82 112 133 115 122 343 10 338 303 289 290
123 125 135 143 138 151 155 148 144 150 149 140 139 139 142 139 131 112 127 132 108 137 136 50 64 70 67 118 85 114 129 21 342 344 2 285 279 301
137 149 153 160 158 162 165 156 157 153 147 142 142 147 147 145 139 130 142 113 123 136 126 122 129 69 32 34 60 127 81 124 328 336 327 322 275 298
144 155 157 163 162 163 165 167 158 160 141 139 145 145 142 136 146 154 141 121 106 115 107 143 135 113 111 163 270 90 142 225 353 338 270 247 280 307
160 161 162 163 166 163 160 151 139 141 136 138 142 143 149 147 152 155 148 136 137 119 134 120 105 134 150 181 163 280 96 117 93 286 293 268 256 291
160 157 160 161 165 161 160 157 153 156 151 148 146 148 149 149 153 149 147 151 142 129 150 133 123 112 101 65 52 2 310 231 232 204 263 352 322 320
150 150 155 157 156 158 156 150 149 152 151 148 148 149 148 154 157 155 153 156 154 147 107 106 86 82 74 96 166 172 332 350 329 316 302 217 178 280
146 146 152 156 155 155 154 154 152 155 157 147 148 152 154 157 152 145 142 137 133 125 132 130 123 65 71 106 129 161 334 306 275 309 302 295 313 306